sat.trackr.live / text

‹ back to catalog

STARLINK-5304

NORAD 54843 · 2022-177Z

PAYLOAD ACTIVE UNKNOWN

§ Identity

Operator
Country
US
Launch date
2022-12-28
Launch site
AFETR
Launch vehicle
Mass (kg)
RCS (m²)

Purposes: comms

External: N2YO · Heavens-Above · Gunter

§ Orbital elements

Epoch: 2026-09-20T22:58:54.752160Z

Period
94.27 min
Inclination
43.0031°
Eccentricity
0.0001078
Mean motion
15.27565447 rev/d
Perigee alt
482.4 km
Apogee alt
483.8 km
Semi-major
6,861.2 km
B*
-5.4261e-5
RAAN
110.1712°
Arg perigee
282.8709°
Mean anomaly
77.2023°
Rev number
20,682

§ Raw data

STARLINK-53041 54843U 22177Z   26263.95757815 -.00001754  00000+0 -54261-4 0  99992 54843  43.0031 110.1712 0001078 282.8709  77.2023 15.27565447206827

JSON: /api/v1/satellites/54843 · /tle

For live sub-satellite position, see the globe view (requires WebGL).

§ Visibility from observer

Set your observer location to see the next 7 days of passes ≥ 10°. The values pass through the URL so the page stays shareable.

No JS? Fill the form by hand. The geolocation button needs JavaScript.